| time (UTC) | temp F | wind direction | speed knots | gust knots | rain 1hr in | rain 24hr in | rain mn in | humidity % | barometer mb |
| 20260906233534 | 96 | 260 | 1.7 | 4.3 | 0.00 | 0.00 | 0.00 | 18 | 1016.1 |
| 20260906233050 | 97 | 204 | 0.9 | 4.3 | 0.00 | 0.00 | 0.00 | 17 | 1016.2 |
| 20260906232535 | 97 | 139 | 1.7 | 4.3 | 0.00 | 0.00 | 0.00 | 17 | 1016.3 |
| 20260906232035 | 97 | 282 | 0.9 | 3.5 | 0.00 | 0.00 | 0.00 | 18 | 1016.2 |
| 20260906231559 | 97 | 248 | 1.7 | 3.5 | 0.00 | 0.00 | 0.00 | 18 | 1016.2 |
| 20260906231038 | 97 | 114 | 0.9 | 3.5 | 0.00 | 0.00 | 0.00 | 18 | 1016.2 |
| 20260906230538 | 97 | 237 | 0.9 | 5.2 | 0.00 | 0.00 | 0.00 | 18 | 1016.2 |
| 20260906230056 | 97 | 102 | 0.9 | 5.2 | 0.00 | 0.00 | 0.00 | 18 | 1016.3 |
| 20260906225535 | 97 | 103 | 1.7 | 3.5 | 0.00 | 0.00 | 0.00 | 18 | 1016.3 |
| 20260906225035 | 97 | 186 | 0.9 | 3.5 | 0.00 | 0.00 | 0.00 | 18 | 1016.3 |
| 20260906224553 | 97 | 216 | 0.9 | 4.3 | 0.00 | 0.00 | 0.00 | 18 | 1016.3 |
| 20260906224037 | 96 | 248 | 0.9 | 4.3 | 0.00 | 0.00 | 0.00 | 19 | 1016.3 |
| 20260906223536 | 96 | 210 | 1.7 | 6.1 | 0.00 | 0.00 | 0.00 | 18 | 1016.3 |
| 20260906223057 | 97 | 233 | 0.9 | 7.8 | 0.00 | 0.00 | 0.00 | 18 | 1016.4 |
| 20260906222535 | 97 | 163 | 2.6 | 7.8 | 0.00 | 0.00 | 0.00 | 18 | 1016.5 |
| 20260906222037 | 97 | 9 | 1.7 | 5.2 | 0.00 | 0.00 | 0.00 | 18 | 1016.5 |
| 20260906221558 | 96 | 170 | 1.7 | 4.3 | 0.00 | 0.00 | 0.00 | 17 | 1016.5 |
| 20260906221035 | 96 | 74 | 1.7 | 4.3 | 0.00 | 0.00 | 0.00 | 18 | 1016.6 |
| 20260906220538 | 96 | 50 | 0.0 | 4.3 | 0.00 | 0.00 | 0.00 | 18 | 1016.7 |
| 20260906220055 | 97 | 127 | 0.9 | 5.2 | 0.00 | 0.00 | 0.00 | 18 | 1016.8 |
| 20260906215535 | 97 | 240 | 0.9 | 5.2 | 0.00 | 0.00 | 0.00 | 18 | 1017.0 |
| 20260906215036 | 97 | 158 | 1.7 | 6.1 | 0.00 | 0.00 | 0.00 | 18 | 1017.1 |
| 20260906214552 | 96 | 285 | 1.7 | 6.1 | 0.00 | 0.00 | 0.00 | 17 | 1017.1 |
| 20260906214034 | 95 | 103 | 1.7 | 7.8 | 0.00 | 0.00 | 0.00 | 17 | 1017.1 |
| 20260906213535 | 96 | 220 | 1.7 | 7.8 | 0.00 | 0.00 | 0.00 | 17 | 1017.3 |
| 20260906213056 | 95 | 341 | 1.7 | 4.3 | 0.00 | 0.00 | 0.00 | 17 | 1017.4 |
| 20260906212534 | 95 | 36 | 0.9 | 3.5 | 0.00 | 0.00 | 0.00 | 17 | 1017.5 |
| 20260906212035 | 96 | 212 | 1.7 | 3.5 | 0.00 | 0.00 | 0.00 | 17 | 1017.6 |
| 20260906211559 | 96 | 136 | 0.9 | 8.7 | 0.00 | 0.00 | 0.00 | 16 | 1017.7 |
| 20260906211036 | 94 | 292 | 0.9 | 8.7 | 0.00 | 0.00 | 0.00 | 16 | 1017.8 |
| 20260906210533 | 95 | 347 | 3.5 | 8.7 | 0.00 | 0.00 | 0.00 | 16 | 1017.7 |
| 20260906205531 | 96 | 300 | 0.9 | 4.3 | 0.00 | 0.00 | 0.00 | 15 | 1017.9 |
| 20260906205030 | 96 | 117 | 1.7 | 5.2 | 0.00 | 0.00 | 0.00 | 15 | 1018.1 |
| 20260906204620 | 95 | 138 | 1.7 | 5.2 | 0.00 | 0.00 | 0.00 | 16 | 1018.2 |
| 20260906204032 | 97 | 192 | 1.7 | 5.2 | 0.00 | 0.00 | 0.00 | 15 | 1018.2 |
| 20260906203536 | 97 | 155 | 1.7 | 5.2 | 0.00 | 0.00 | 0.00 | 15 | 1018.3 |
| 20260906203059 | 95 | 274 | 1.7 | 3.5 | 0.00 | 0.00 | 0.00 | 16 | 1018.4 |
| 20260906202531 | 95 | 70 | 0.9 | 5.2 | 0.00 | 0.00 | 0.00 | 16 | 1018.6 |
| 20260906202031 | 95 | 300 | 0.9 | 7.0 | 0.00 | 0.00 | 0.00 | 15 | 1018.6 |
| 20260906201605 | 95 | 84 | 2.6 | 7.0 | 0.00 | 0.00 | 0.00 | 15 | 1018.8 |
| 20260906201032 | 95 | 137 | 0.9 | 4.3 | 0.00 | 0.00 | 0.00 | 15 | 1018.8 |
| 20260906200532 | 95 | 201 | 1.7 | 4.3 | 0.00 | 0.00 | 0.00 | 15 | 1018.7 |
| 20260906200051 | 94 | 280 | 0.9 | 4.3 | 0.00 | 0.00 | 0.00 | 16 | 1018.8 |
| 20260906195533 | 92 | 221 | 1.7 | 4.3 | 0.00 | 0.00 | 0.00 | 17 | 1018.9 |
| 20260906195030 | 92 | 51 | 0.9 | 4.3 | 0.00 | 0.00 | 0.00 | 17 | 1019.0 |
| 20260906194556 | 92 | 326 | 0.9 | 6.1 | 0.00 | 0.00 | 0.00 | 17 | 1019.1 |
| 20260906194033 | 92 | 25 | 2.6 | 6.1 | 0.00 | 0.00 | 0.00 | 17 | 1019.2 |
| 20260906193532 | 92 | 25 | 1.7 | 5.2 | 0.00 | 0.00 | 0.00 | 17 | 1019.2 |
| 20260906193057 | 92 | 297 | 1.7 | 4.3 | 0.00 | 0.00 | 0.00 | 17 | 1019.2 |
| 20260906192531 | 93 | 304 | 1.7 | 4.3 | 0.00 | 0.00 | 0.00 | 16 | 1019.3 |
| 20260906192031 | 93 | 0 | 0.9 | 4.3 | 0.00 | 0.00 | 0.00 | 16 | 1019.4 |
| 20260906191554 | 92 | 16 | 0.9 | 4.3 | 0.00 | 0.00 | 0.00 | 16 | 1019.6 |
| 20260906191033 | 92 | 122 | 1.7 | 4.3 | 0.00 | 0.00 | 0.00 | 16 | 1019.6 |
| 20260906190537 | 92 | 20 | 0.9 | 4.3 | 0.00 | 0.00 | 0.00 | 16 | 1019.8 |
| 20260906190053 | 91 | 0 | 1.7 | 4.3 | 0.00 | 0.00 | 0.00 | 15 | 1019.9 |
| 20260906185537 | 91 | 39 | 1.7 | 4.3 | 0.00 | 0.00 | 0.00 | 15 | 1019.9 |
| 20260906185034 | 92 | 286 | 1.7 | 4.3 | 0.00 | 0.00 | 0.00 | 16 | 1020.0 |
| 20260906184557 | 93 | 262 | 0.9 | 3.5 | 0.00 | 0.00 | 0.00 | 17 | 1020.0 |
| 20260906184032 | 92 | 184 | 0.9 | 5.2 | 0.00 | 0.00 | 0.00 | 18 | 1020.1 |
| 20260906183534 | 91 | 222 | 0.9 | 5.2 | 0.00 | 0.00 | 0.00 | 18 | 1020.2 |
| 20260906183059 | 91 | 53 | 1.7 | 5.2 | 0.00 | 0.00 | 0.00 | 18 | 1020.2 |
| 20260906182531 | 90 | 304 | 0.0 | 4.3 | 0.00 | 0.00 | 0.00 | 18 | 1020.2 |
| 20260906182033 | 89 | 37 | 1.7 | 4.3 | 0.00 | 0.00 | 0.00 | 19 | 1020.3 |
| 20260906181556 | 89 | 13 | 1.7 | 4.3 | 0.00 | 0.00 | 0.00 | 21 | 1020.5 |
| 20260906181033 | 89 | 193 | 0.0 | 4.3 | 0.00 | 0.00 | 0.00 | 23 | 1020.5 |
| 20260906180534 | 89 | 79 | 1.7 | 4.3 | 0.00 | 0.00 | 0.00 | 22 | 1020.6 |
| 20260906180106 | 88 | 54 | 0.9 | 4.3 | 0.00 | 0.00 | 0.00 | 24 | 1020.7 |
| 20260906175533 | 87 | 45 | 1.7 | 5.2 | 0.00 | 0.00 | 0.00 | 25 | 1020.8 |
| 20260906175032 | 87 | 314 | 0.9 | 5.2 | 0.00 | 0.00 | 0.00 | 25 | 1020.7 |
| 20260906174604 | 86 | 23 | 1.7 | 4.3 | 0.00 | 0.00 | 0.00 | 26 | 1020.8 |
| 20260906174033 | 86 | 97 | 0.9 | 4.3 | 0.00 | 0.00 | 0.00 | 28 | 1020.9 |
| 20260906173530 | 85 | 35 | 0.9 | 5.2 | 0.00 | 0.00 | 0.00 | 27 | 1021.1 |
| 20260906173054 | 85 | 342 | 2.6 | 5.2 | 0.00 | 0.00 | 0.00 | 27 | 1021.1 |
| 20260906172537 | 85 | 306 | 2.6 | 5.2 | 0.00 | 0.00 | 0.00 | 28 | 1021.2 |
| 20260906172033 | 84 | 316 | 2.6 | 5.2 | 0.00 | 0.00 | 0.00 | 29 | 1021.3 |
| 20260906171555 | 83 | 50 | 2.6 | 5.2 | 0.00 | 0.00 | 0.00 | 29 | 1021.3 |
| 20260906171033 | 83 | 31 | 2.6 | 5.2 | 0.00 | 0.00 | 0.00 | 31 | 1021.4 |
| 20260906170531 | 83 | 23 | 2.6 | 5.2 | 0.00 | 0.00 | 0.00 | 31 | 1021.4 |
| 20260906170056 | 83 | 22 | 0.9 | 5.2 | 0.00 | 0.00 | 0.00 | 31 | 1021.5 |
| 20260906165535 | 83 | 72 | 1.7 | 4.3 | 0.00 | 0.00 | 0.00 | 31 | 1021.4 |
| 20260906165032 | 82 | 51 | 1.7 | 5.2 | 0.00 | 0.00 | 0.00 | 31 | 1021.5 |
| 20260906164556 | 82 | 3 | 1.7 | 5.2 | 0.00 | 0.00 | 0.00 | 31 | 1021.5 |
| 20260906164034 | 83 | 21 | 1.7 | 5.2 | 0.00 | 0.00 | 0.00 | 31 | 1021.5 |
| 20260906163536 | 83 | 12 | 1.7 | 5.2 | 0.00 | 0.00 | 0.00 | 31 | 1021.5 |
| 20260906163054 | 82 | 329 | 1.7 | 4.3 | 0.00 | 0.00 | 0.00 | 31 | 1021.5 |
| 20260906162535 | 82 | 322 | 1.7 | 6.1 | 0.00 | 0.00 | 0.00 | 32 | 1021.5 |
| 20260906162031 | 82 | 40 | 2.6 | 6.1 | 0.00 | 0.00 | 0.00 | 31 | 1021.5 |
| 20260906161601 | 82 | 339 | 2.6 | 7.0 | 0.00 | 0.00 | 0.00 | 31 | 1021.5 |
| 20260906161033 | 82 | 354 | 2.6 | 7.0 | 0.00 | 0.00 | 0.00 | 32 | 1021.5 |
| 20260906160531 | 82 | 6 | 2.6 | 7.8 | 0.00 | 0.00 | 0.00 | 32 | 1021.5 |
| 20260906160051 | 81 | 356 | 2.6 | 7.8 | 0.00 | 0.00 | 0.00 | 32 | 1021.5 |
| 20260906155537 | 81 | 330 | 1.7 | 6.1 | 0.00 | 0.00 | 0.00 | 32 | 1021.4 |
| 20260906155030 | 81 | 81 | 2.6 | 6.1 | 0.00 | 0.00 | 0.00 | 32 | 1021.5 |
| 20260906154606 | 81 | 1 | 1.7 | 7.0 | 0.00 | 0.00 | 0.00 | 31 | 1021.5 |
| 20260906154031 | 81 | 347 | 2.6 | 7.0 | 0.00 | 0.00 | 0.00 | 31 | 1021.5 |
| 20260906153533 | 81 | 24 | 2.6 | 7.0 | 0.00 | 0.00 | 0.00 | 31 | 1021.5 |
| 20260906153102 | 80 | 23 | 2.6 | 7.0 | 0.00 | 0.00 | 0.00 | 31 | 1021.4 |
| 20260906152533 | 80 | 265 | 3.5 | 7.0 | 0.00 | 0.00 | 0.00 | 31 | 1021.3 |
| 20260906152031 | 80 | 31 | 2.6 | 7.0 | 0.00 | 0.00 | 0.00 | 31 | 1021.3 |
| 20260906151551 | 80 | 316 | 1.7 | 5.2 | 0.00 | 0.00 | 0.00 | 32 | 1021.4 |
| 20260906151034 | 79 | 321 | 2.6 | 6.1 | 0.00 | 0.00 | 0.00 | 32 | 1021.5 |
| 20260906150531 | 79 | 334 | 2.6 | 7.0 | 0.00 | 0.00 | 0.00 | 33 | 1021.5 |
| 20260906145537 | 78 | 35 | 4.3 | 7.8 | 0.00 | 0.00 | 0.00 | 33 | 1021.4 |
| 20260906145031 | 77 | 309 | 2.6 | 7.8 | 0.00 | 0.00 | 0.00 | 34 | 1021.4 |
| 20260906144559 | 77 | 353 | 1.7 | 7.0 | 0.00 | 0.00 | 0.00 | 34 | 1021.4 |
| 20260906144031 | 76 | 300 | 2.6 | 7.8 | 0.00 | 0.00 | 0.00 | 34 | 1021.4 |
| 20260906143534 | 76 | 5 | 2.6 | 7.8 | 0.00 | 0.00 | 0.00 | 34 | 1021.3 |
| 20260906143107 | 76 | 349 | 2.6 | 6.1 | 0.00 | 0.00 | 0.00 | 35 | 1021.3 |
| 20260906142534 | 75 | 316 | 0.9 | 4.3 | 0.00 | 0.00 | 0.00 | 36 | 1021.2 |
| 20260906142035 | 74 | 282 | 1.7 | 4.3 | 0.00 | 0.00 | 0.00 | 36 | 1021.1 |
| 20260906141600 | 74 | 0 | 1.7 | 4.3 | 0.00 | 0.00 | 0.00 | 36 | 1021.1 |
| 20260906141032 | 73 | 3 | 1.7 | 4.3 | 0.00 | 0.00 | 0.00 | 37 | 1021.1 |
| 20260906140533 | 73 | 44 | 1.7 | 3.5 | 0.00 | 0.00 | 0.00 | 37 | 1021.2 |
| 20260906140059 | 72 | 25 | 0.9 | 2.6 | 0.00 | 0.00 | 0.00 | 38 | 1021.1 |
| 20260906135533 | 72 | 349 | 0.9 | 2.6 | 0.00 | 0.00 | 0.00 | 38 | 1021.1 |
| 20260906135034 | 72 | 44 | 0.9 | 2.6 | 0.00 | 0.00 | 0.00 | 37 | 1021.1 |
| 20260906134549 | 72 | 30 | 0.0 | 2.6 | 0.00 | 0.00 | 0.00 | 37 | 1021.0 |
| 20260906134034 | 72 | 0 | 0.9 | 2.6 | 0.00 | 0.00 | 0.00 | 37 | 1021.0 |
| 20260906133530 | 71 | 0 | 0.9 | 2.6 | 0.00 | 0.00 | 0.00 | 37 | 1020.9 |
| 20260906133107 | 70 | 51 | 0.9 | 2.6 | 0.00 | 0.00 | 0.00 | 38 | 1020.9 |
| 20260906132531 | 69 | 12 | 0.9 | 2.6 | 0.00 | 0.00 | 0.00 | 38 | 1020.7 |
| 20260906132031 | 69 | 318 | 0.0 | 0.9 | 0.00 | 0.00 | 0.00 | 39 | 1020.7 |
| 20260906131601 | 68 | 0 | 0.0 | 0.9 | 0.00 | 0.00 | 0.00 | 40 | 1020.7 |
| 20260906131031 | 68 | 335 | 0.0 | 0.9 | 0.00 | 0.00 | 0.00 | 41 | 1020.8 |
| 20260906130531 | 68 | 0 | 0.0 | 0.9 | 0.00 | 0.00 | 0.00 | 41 | 1020.8 |
| 20260906130058 | 67 | 0 | 0.0 | 0.0 | 0.00 | 0.00 | 0.00 | 41 | 1020.7 |
| 20260906125532 | 67 | 0 | 0.0 | 0.0 | 0.00 | 0.00 | 0.00 | 41 | 1020.7 |
| 20260906125033 | 66 | 0 | 0.0 | 0.0 | 0.00 | 0.00 | 0.00 | 42 | 1020.7 |
| 20260906124550 | 67 | 0 | 0.0 | 0.0 | 0.00 | 0.00 | 0.00 | 41 | 1020.7 |
| 20260906124035 | 67 | 0 | 0.0 | 0.0 | 0.00 | 0.00 | 0.00 | 41 | 1020.7 |
| 20260906123534 | 67 | 0 | 0.0 | 0.9 | 0.00 | 0.00 | 0.00 | 41 | 1020.6 |
| 20260906123050 | 67 | 0 | 0.0 | 0.9 | 0.00 | 0.00 | 0.00 | 41 | 1020.6 |
| 20260906122534 | 67 | 0 | 0.0 | 0.9 | 0.00 | 0.00 | 0.00 | 42 | 1020.6 |
| 20260906122034 | 68 | 0 | 0.0 | 0.0 | 0.00 | 0.00 | 0.00 | 42 | 1020.6 |
| 20260906121555 | 68 | 0 | 0.0 | 0.9 | 0.00 | 0.00 | 0.00 | 43 | 1020.5 |
| 20260906121031 | 68 | 0 | 0.0 | 0.9 | 0.00 | 0.00 | 0.00 | 42 | 1020.5 |
| 20260906120531 | 69 | 0 | 0.0 | 0.9 | 0.00 | 0.00 | 0.00 | 42 | 1020.5 |
| 20260906120126 | 69 | 0 | 0.0 | 0.9 | 0.00 | 0.00 | 0.00 | 41 | 1020.4 |
| 20260906115532 | 69 | 0 | 0.0 | 0.9 | 0.00 | 0.00 | 0.00 | 41 | 1020.4 |
| 20260906115031 | 70 | 0 | 0.0 | 0.9 | 0.00 | 0.00 | 0.00 | 41 | 1020.4 |
| 20260906114601 | 70 | 0 | 0.0 | 0.9 | 0.00 | 0.00 | 0.00 | 41 | 1020.4 |
| 20260906114032 | 70 | 0 | 0.0 | 0.9 | 0.00 | 0.00 | 0.00 | 41 | 1020.3 |
| 20260906113532 | 70 | 0 | 0.0 | 0.9 | 0.00 | 0.00 | 0.00 | 40 | 1020.3 |
| 20260906113055 | 70 | 0 | 0.0 | 0.0 | 0.00 | 0.00 | 0.00 | 41 | 1020.4 |
| 20260906112531 | 70 | 0 | 0.0 | 0.0 | 0.00 | 0.00 | 0.00 | 39 | 1020.4 |
| 20260906112032 | 71 | 0 | 0.0 | 0.0 | 0.00 | 0.00 | 0.00 | 39 | 1020.5 |
| 20260906111602 | 71 | 0 | 0.0 | 0.0 | 0.00 | 0.00 | 0.00 | 39 | 1020.4 |
| 20260906111031 | 71 | 0 | 0.0 | 0.0 | 0.00 | 0.00 | 0.00 | 39 | 1020.3 |
| 20260906110531 | 72 | 0 | 0.0 | 0.9 | 0.00 | 0.00 | 0.00 | 38 | 1020.2 |
| 20260906110055 | 72 | 0 | 0.0 | 0.9 | 0.00 | 0.00 | 0.00 | 38 | 1020.2 |
| 20260906105531 | 72 | 0 | 0.0 | 1.7 | 0.00 | 0.00 | 0.00 | 37 | 1020.2 |
| 20260906105036 | 73 | 0 | 0.0 | 1.7 | 0.00 | 0.00 | 0.00 | 37 | 1020.3 |
| 20260906104551 | 73 | 0 | 0.0 | 0.9 | 0.00 | 0.00 | 0.00 | 37 | 1020.2 |
| 20260906104034 | 73 | 0 | 0.0 | 0.9 | 0.00 | 0.00 | 0.00 | 37 | 1020.3 |
| 20260906103532 | 73 | 53 | 0.0 | 1.7 | 0.00 | 0.00 | 0.00 | 37 | 1020.3 |
| 20260906103051 | 73 | 0 | 0.0 | 1.7 | 0.00 | 0.00 | 0.00 | 36 | 1020.2 |
| 20260906102536 | 73 | 0 | 0.0 | 0.0 | 0.00 | 0.00 | 0.00 | 37 | 1020.2 |
| 20260906102034 | 73 | 0 | 0.0 | 0.0 | 0.00 | 0.00 | 0.00 | 37 | 1020.2 |
| 20260906101556 | 73 | 0 | 0.0 | 0.0 | 0.00 | 0.00 | 0.00 | 36 | 1020.2 |
| 20260906101037 | 74 | 0 | 0.0 | 0.0 | 0.00 | 0.00 | 0.00 | 36 | 1020.0 |
| 20260906100535 | 74 | 0 | 0.0 | 0.0 | 0.00 | 0.00 | 0.00 | 35 | 1020.1 |
| 20260906100100 | 74 | 0 | 0.0 | 0.0 | 0.00 | 0.00 | 0.00 | 35 | 1020.0 |
| 20260906095533 | 74 | 0 | 0.0 | 0.0 | 0.00 | 0.00 | 0.00 | 35 | 1020.1 |
| 20260906095032 | 74 | 0 | 0.0 | 0.9 | 0.00 | 0.00 | 0.00 | 35 | 1020.1 |
| 20260906094552 | 74 | 0 | 0.0 | 0.9 | 0.00 | 0.00 | 0.00 | 35 | 1020.1 |
| 20260906094034 | 74 | 0 | 0.0 | 0.9 | 0.00 | 0.00 | 0.00 | 35 | 1020.1 |
| 20260906093534 | 74 | 0 | 0.0 | 0.9 | 0.00 | 0.00 | 0.00 | 36 | 1020.0 |
| 20260906093057 | 74 | 0 | 0.0 | 0.9 | 0.00 | 0.00 | 0.00 | 36 | 1020.0 |
| 20260906092534 | 75 | 0 | 0.0 | 1.7 | 0.00 | 0.00 | 0.00 | 35 | 1019.9 |
| 20260906092034 | 75 | 18 | 0.0 | 1.7 | 0.00 | 0.00 | 0.00 | 35 | 1019.8 |
| 20260906091552 | 75 | 0 | 0.0 | 0.9 | 0.00 | 0.00 | 0.00 | 35 | 1019.8 |
| 20260906091034 | 74 | 282 | 0.0 | 0.9 | 0.00 | 0.00 | 0.00 | 36 | 1019.8 |
| 20260906090533 | 74 | 318 | 0.0 | 0.9 | 0.00 | 0.00 | 0.00 | 36 | 1019.7 |
| 20260906090058 | 74 | 0 | 0.0 | 0.0 | 0.00 | 0.00 | 0.00 | 37 | 1019.7 |
| 20260906085537 | 73 | 0 | 0.0 | 0.0 | 0.00 | 0.00 | 0.00 | 37 | 1019.7 |
| 20260906085035 | 73 | 0 | 0.0 | 0.0 | 0.00 | 0.00 | 0.00 | 37 | 1019.7 |
| 20260906084556 | 73 | 0 | 0.0 | 0.0 | 0.00 | 0.00 | 0.00 | 38 | 1019.7 |
| 20260906084035 | 73 | 0 | 0.0 | 0.0 | 0.00 | 0.00 | 0.00 | 38 | 1019.7 |
| 20260906083534 | 73 | 0 | 0.0 | 0.0 | 0.00 | 0.00 | 0.00 | 38 | 1019.8 |
| 20260906083046 | 73 | 0 | 0.0 | 0.0 | 0.00 | 0.00 | 0.00 | 38 | 1019.8 |
| 20260906082534 | 73 | 0 | 0.0 | 0.0 | 0.00 | 0.00 | 0.00 | 38 | 1019.9 |
| 20260906082032 | 73 | 0 | 0.0 | 0.0 | 0.00 | 0.00 | 0.00 | 38 | 1019.9 |
| 20260906081558 | 73 | 0 | 0.0 | 0.0 | 0.00 | 0.00 | 0.00 | 38 | 1020.0 |
| 20260906081033 | 73 | 0 | 0.0 | 0.0 | 0.00 | 0.00 | 0.00 | 38 | 1020.0 |
| 20260906080533 | 73 | 0 | 0.0 | 0.0 | 0.00 | 0.00 | 0.00 | 38 | 1020.1 |
| 20260906080058 | 73 | 0 | 0.0 | 0.0 | 0.00 | 0.00 | 0.00 | 38 | 1020.2 |
| 20260906075532 | 73 | 0 | 0.0 | 0.0 | 0.00 | 0.00 | 0.00 | 38 | 1020.2 |
| 20260906075032 | 73 | 0 | 0.0 | 0.0 | 0.00 | 0.00 | 0.00 | 38 | 1020.2 |
| 20260906074556 | 73 | 0 | 0.0 | 0.0 | 0.00 | 0.00 | 0.00 | 39 | 1020.2 |
| 20260906074034 | 73 | 0 | 0.0 | 0.9 | 0.00 | 0.00 | 0.00 | 39 | 1020.2 |
| 20260906073532 | 72 | 0 | 0.0 | 0.9 | 0.00 | 0.00 | 0.00 | 39 | 1020.2 |
| 20260906073055 | 72 | 0 | 0.0 | 0.0 | 0.00 | 0.00 | 0.00 | 40 | 1020.2 |
| 20260906072532 | 72 | 0 | 0.0 | 0.0 | 0.00 | 0.00 | 0.00 | 40 | 1020.3 |
| 20260906072034 | 72 | 0 | 0.0 | 0.0 | 0.00 | 0.00 | 0.00 | 39 | 1020.3 |
| 20260906071556 | 73 | 0 | 0.0 | 0.0 | 0.00 | 0.00 | 0.00 | 39 | 1020.3 |
| 20260906071035 | 73 | 0 | 0.0 | 0.0 | 0.00 | 0.00 | 0.00 | 38 | 1020.3 |
| 20260906070535 | 74 | 0 | 0.0 | 0.0 | 0.00 | 0.00 | 0.00 | 37 | 1020.3 |
| 20260906070057 | 74 | 0 | 0.0 | 0.0 | 0.00 | 0.00 | 0.00 | 37 | 1020.2 |
| 20260906065535 | 75 | 0 | 0.0 | 0.0 | 0.00 | 0.00 | 0.00 | 36 | 1020.3 |
| 20260906065032 | 76 | 0 | 0.0 | 0.9 | 0.00 | 0.00 | 0.00 | 35 | 1020.2 |
| 20260906064551 | 76 | 0 | 0.0 | 0.9 | 0.00 | 0.00 | 0.00 | 35 | 1020.3 |
| 20260906064034 | 76 | 0 | 0.0 | 0.9 | 0.00 | 0.00 | 0.00 | 35 | 1020.2 |
| 20260906063537 | 75 | 0 | 0.0 | 0.9 | 0.00 | 0.00 | 0.00 | 36 | 1020.2 |
| 20260906063057 | 75 | 0 | 0.0 | 0.9 | 0.00 | 0.00 | 0.00 | 36 | 1020.2 |
| 20260906062533 | 76 | 0 | 0.0 | 0.9 | 0.00 | 0.00 | 0.00 | 35 | 1020.2 |
| 20260906062034 | 76 | 0 | 0.0 | 0.9 | 0.00 | 0.00 | 0.00 | 35 | 1020.2 |
| 20260906061601 | 77 | 0 | 0.0 | 1.7 | 0.00 | 0.00 | 0.00 | 35 | 1020.0 |
| 20260906061035 | 77 | 0 | 0.0 | 1.7 | 0.00 | 0.00 | 0.00 | 34 | 1020.0 |
| 20260906060534 | 77 | 0 | 0.9 | 1.7 | 0.00 | 0.00 | 0.00 | 34 | 1019.9 |
| 20260906060056 | 77 | 98 | 0.0 | 0.9 | 0.00 | 0.00 | 0.00 | 35 | 1019.8 |
| 20260906055535 | 77 | 75 | 0.0 | 1.7 | 0.00 | 0.00 | 0.00 | 35 | 1019.9 |
| 20260906055035 | 77 | 65 | 0.0 | 1.7 | 0.00 | 0.00 | 0.00 | 35 | 1019.8 |
| 20260906054605 | 78 | 60 | 0.0 | 1.7 | 0.00 | 0.00 | 0.00 | 34 | 1019.7 |
| 20260906054034 | 78 | 0 | 0.0 | 0.9 | 0.00 | 0.00 | 0.00 | 33 | 1019.7 |
| 20260906053532 | 78 | 0 | 0.0 | 1.7 | 0.00 | 0.00 | 0.00 | 32 | 1019.8 |
| 20260906053055 | 79 | 336 | 0.0 | 2.6 | 0.00 | 0.00 | 0.00 | 32 | 1019.7 |
| 20260906052533 | 79 | 274 | 0.0 | 2.6 | 0.00 | 0.00 | 0.00 | 32 | 1019.7 |
| 20260906052032 | 79 | 331 | 0.0 | 2.6 | 0.00 | 0.00 | 0.00 | 31 | 1019.7 |
| 20260906051553 | 79 | 356 | 0.0 | 3.5 | 0.00 | 0.00 | 0.00 | 31 | 1019.7 |
| 20260906051035 | 80 | 355 | 0.0 | 3.5 | 0.00 | 0.00 | 0.00 | 31 | 1019.6 |
| 20260906050536 | 80 | 330 | 0.9 | 6.1 | 0.00 | 0.00 | 0.00 | 31 | 1019.6 |
| 20260906050104 | 80 | 293 | 1.7 | 6.1 | 0.00 | 0.00 | 0.00 | 31 | 1019.5 |
| 20260906045535 | 80 | 59 | 0.9 | 4.3 | 0.00 | 0.00 | 0.00 | 31 | 1019.5 |
| 20260906045035 | 80 | 284 | 0.9 | 5.2 | 0.00 | 0.00 | 0.00 | 31 | 1019.4 |
| 20260906044552 | 80 | 344 | 1.7 | 5.2 | 0.00 | 0.00 | 0.00 | 31 | 1019.6 |
| 20260906044034 | 80 | 300 | 1.7 | 4.3 | 0.00 | 0.00 | 0.00 | 31 | 1019.6 |
| 20260906043534 | 80 | 328 | 1.7 | 6.1 | 0.00 | 0.00 | 0.00 | 31 | 1019.6 |
| 20260906043048 | 80 | 330 | 1.7 | 6.1 | 0.00 | 0.00 | 0.00 | 30 | 1019.6 |
| 20260906042535 | 80 | 313 | 1.7 | 6.1 | 0.00 | 0.00 | 0.00 | 30 | 1019.5 |
| 20260906042033 | 81 | 283 | 0.0 | 3.5 | 0.00 | 0.00 | 0.00 | 30 | 1019.4 |
| 20260906041556 | 81 | 13 | 0.0 | 5.2 | 0.00 | 0.00 | 0.00 | 30 | 1019.4 |
| 20260906041033 | 81 | 15 | 0.9 | 5.2 | 0.00 | 0.00 | 0.00 | 30 | 1019.5 |
| 20260906040534 | 81 | 286 | 1.7 | 5.2 | 0.00 | 0.00 | 0.00 | 30 | 1019.5 |
| 20260906040104 | 81 | 296 | 1.7 | 5.2 | 0.00 | 0.00 | 0.00 | 30 | 1019.5 |
| 20260906035534 | 82 | 300 | 0.9 | 3.5 | 0.00 | 0.00 | 0.00 | 30 | 1019.6 |
| 20260906035034 | 82 | 248 | 0.9 | 3.5 | 0.00 | 0.00 | 0.00 | 29 | 1019.6 |
| 20260906034553 | 82 | 269 | 0.9 | 2.6 | 0.00 | 0.00 | 0.00 | 29 | 1019.5 |
| 20260906034034 | 82 | 272 | 0.0 | 5.2 | 0.00 | 0.00 | 0.00 | 29 | 1019.5 |
| 20260906033534 | 82 | 309 | 0.9 | 5.2 | 0.00 | 0.00 | 0.00 | 29 | 1019.5 |
| 20260906033117 | 82 | 267 | 0.9 | 2.6 | 0.00 | 0.00 | 0.00 | 29 | 1019.5 |
| 20260906032533 | 82 | 311 | 0.0 | 1.7 | 0.00 | 0.00 | 0.00 | 29 | 1019.4 |
| 20260906032034 | 82 | 325 | 0.0 | 4.3 | 0.00 | 0.00 | 0.00 | 29 | 1019.2 |
| 20260906031612 | 82 | 278 | 0.9 | 4.3 | 0.00 | 0.00 | 0.00 | 29 | 1019.2 |
| 20260906031037 | 83 | 288 | 0.9 | 4.3 | 0.00 | 0.00 | 0.00 | 29 | 1019.1 |
| 20260906030535 | 83 | 276 | 1.7 | 5.2 | 0.00 | 0.00 | 0.00 | 29 | 1019.0 |
| 20260906030056 | 83 | 256 | 1.7 | 5.2 | 0.00 | 0.00 | 0.00 | 29 | 1019.0 |
| 20260906025533 | 83 | 283 | 0.9 | 4.3 | 0.00 | 0.00 | 0.00 | 28 | 1018.9 |
| 20260906025034 | 83 | 271 | 1.7 | 5.2 | 0.00 | 0.00 | 0.00 | 28 | 1018.9 |
| 20260906024600 | 83 | 297 | 1.7 | 5.2 | 0.00 | 0.00 | 0.00 | 28 | 1018.7 |
| 20260906024035 | 84 | 283 | 2.6 | 5.2 | 0.00 | 0.00 | 0.00 | 28 | 1018.6 |
| 20260906023534 | 84 | 296 | 1.7 | 5.2 | 0.00 | 0.00 | 0.00 | 28 | 1018.6 |
| 20260906023101 | 84 | 283 | 0.9 | 4.3 | 0.00 | 0.00 | 0.00 | 29 | 1018.6 |
| 20260906022533 | 84 | 288 | 0.9 | 4.3 | 0.00 | 0.00 | 0.00 | 29 | 1018.4 |
| 20260906022035 | 84 | 53 | 0.9 | 3.5 | 0.00 | 0.00 | 0.00 | 29 | 1018.4 |
| 20260906021603 | 84 | 281 | 0.9 | 2.6 | 0.00 | 0.00 | 0.00 | 29 | 1018.3 |
| 20260906021032 | 84 | 254 | 0.9 | 2.6 | 0.00 | 0.00 | 0.00 | 29 | 1018.4 |
| 20260906020535 | 85 | 295 | 0.9 | 2.6 | 0.00 | 0.00 | 0.00 | 29 | 1018.3 |
| 20260906020054 | 85 | 279 | 0.0 | 2.6 | 0.00 | 0.00 | 0.00 | 29 | 1018.3 |
| 20260906015534 | 85 | 280 | 0.0 | 2.6 | 0.00 | 0.00 | 0.00 | 28 | 1018.2 |
| 20260906015032 | 86 | 264 | 0.0 | 2.6 | 0.00 | 0.00 | 0.00 | 28 | 1018.2 |
| 20260906014548 | 86 | 278 | 0.9 | 3.5 | 0.00 | 0.00 | 0.00 | 28 | 1018.1 |
| 20260906014036 | 86 | 0 | 0.0 | 3.5 | 0.00 | 0.00 | 0.00 | 28 | 1018.1 |
| 20260906013535 | 86 | 17 | 1.7 | 3.5 | 0.00 | 0.00 | 0.00 | 27 | 1018.2 |
| 20260906013104 | 87 | 283 | 0.9 | 4.3 | 0.00 | 0.00 | 0.00 | 28 | 1018.2 |
| 20260906012534 | 87 | 333 | 1.7 | 4.3 | 0.00 | 0.00 | 0.00 | 27 | 1018.2 |
| 20260906012034 | 87 | 343 | 0.9 | 4.3 | 0.00 | 0.00 | 0.00 | 27 | 1018.2 |
| 20260906011559 | 87 | 336 | 0.9 | 4.3 | 0.00 | 0.00 | 0.00 | 27 | 1018.2 |
| 20260906011036 | 88 | 288 | 1.7 | 4.3 | 0.00 | 0.00 | 0.00 | 27 | 1018.3 |
| 20260906010534 | 88 | 281 | 0.9 | 4.3 | 0.00 | 0.00 | 0.00 | 27 | 1018.2 |
| 20260906010055 | 88 | 283 | 0.9 | 4.3 | 0.00 | 0.00 | 0.00 | 27 | 1018.2 |
| 20260906005532 | 89 | 277 | 0.9 | 3.5 | 0.00 | 0.00 | 0.00 | 26 | 1018.2 |
| 20260906005034 | 90 | 298 | 0.9 | 5.2 | 0.00 | 0.00 | 0.00 | 26 | 1018.2 |
| 20260906004555 | 90 | 256 | 2.6 | 5.2 | 0.00 | 0.00 | 0.00 | 26 | 1018.2 |
| 20260906004034 | 90 | 250 | 0.9 | 5.2 | 0.00 | 0.00 | 0.00 | 27 | 1018.2 |
| 20260906003534 | 90 | 309 | 1.7 | 5.2 | 0.00 | 0.00 | 0.00 | 26 | 1018.2 |
| 20260906003056 | 90 | 285 | 1.7 | 7.8 | 0.00 | 0.00 | 0.00 | 26 | 1018.3 |
| 20260906002534 | 90 | 205 | 1.7 | 7.8 | 0.00 | 0.00 | 0.00 | 26 | 1018.4 |
| 20260906002034 | 91 | 251 | 0.9 | 3.5 | 0.00 | 0.00 | 0.00 | 26 | 1018.2 |
| 20260906001552 | 91 | 269 | 0.9 | 4.3 | 0.00 | 0.00 | 0.00 | 26 | 1018.2 |
| 20260906001034 | 90 | 13 | 0.9 | 4.3 | 0.00 | 0.00 | 0.00 | 26 | 1018.2 |
| 20260906000534 | 90 | 338 | 0.9 | 6.1 | 0.00 | 0.00 | 0.00 | 26 | 1018.2 |
| 20260906000059 | 90 | 312 | 0.9 | 7.8 | 0.00 | 0.00 | 0.00 | 26 | 1018.2 |
| 20260905235534 | 90 | 304 | 2.6 | 7.8 | 0.00 | 0.00 | 0.00 | 26 | 1018.2 |
| 20260905235034 | 91 | 286 | 2.6 | 7.0 | 0.00 | 0.00 | 0.00 | 26 | 1018.2 |
| 20260905234554 | 91 | 235 | 1.7 | 7.0 | 0.00 | 0.00 | 0.00 | 26 | 1018.1 |
| 20260905234035 | 90 | 251 | 1.7 | 7.0 | 0.00 | 0.00 | 0.00 | 26 | 1018.1 |